Big Black

США     33˚09′21″N   116˚48′36″W
темп.,
°C
ветер,
м/с
пор.,
м/с
влажн.,
%
обл.,
%
осадки,
мм/ч
давл.,
гПа
погр.,
м
4 декабря, пт
пт401:00+4˚всв33190 0.0 102425
04:00+4˚всв33180 0.0 102326
07:00+4˚всв33150 0.0 102325
10:00+15˚в2290 0.0 1024451
13:00+18˚в0290 0.0 10211123
16:00+13˚юз01240 0.0 102125
19:00+6˚всв22220 0.0 102222
22:00+5˚в22380 0.0 102322
5 декабря, сб
сб501:00+4˚ссв11420 0.0 102322
04:00+4˚всв22400 0.0 102322
07:00+5˚в23155 0.0 102423
10:00+16˚юв1192 0.0 1026474
13:00+18˚юз21953 0.0 10231044
16:00+12˚юз112872 0.0 102323
19:00+5˚всв122439 0.0 102422
22:00+5˚всв223221 0.0 102522
6 декабря, вс
вс601:00+4˚всв22410 0.0 102322
04:00+5˚всв223832 0.0 102222
07:00+6˚всв3314100 0.0 102326
10:00+17˚в331061 0.0 1023424
13:00+19˚юв1190 0.0 10201093
16:00+14˚зюз11270 0.0 101924
19:00+8˚всв221949 0.0 101922
22:00+6˚в123245 0.0 101922
7 декабря, пн
пн701:00+6˚в12440 0.0 101723
04:00+5˚в22420 0.0 101722
07:00+6˚всв33220 0.0 101726
10:00+16˚в34150 0.0 1017594
13:00+17˚в551473 0.0 10151074
16:00+14˚в6101686 0.0 1015475
19:00+11˚всв5716100 0.0 1016122
22:00+11˚всв5518100 0.0 101789
8 декабря, вт
вт801:00+12˚всв71118100 0.0 1017237
04:00+12˚всв81217100 0.0 1017287
07:00+11˚всв71218100 0.0 1019266
10:00+17˚всв121614100 0.0 10191047
13:00+19˚всв12151399 0.0 10171047
16:00+16˚св471792 0.0 1017226
19:00+12˚ссв3417100 0.0 101840
22:00+10˚св2319100 0.0 101823